[[{"header":{"parameterUnit":"m.s-1","parameterCategory":1,"la1":30.2991,"la2":30.254,"lo1":-89.0895,"lo2":-89.0444,"dy":0.0017,"dx":0.0017,"nx":28,"ny":28,"refTime":"2025-07-07T21:00:00:Z","depth":0,"parameterNumber":2,"parameterNumberName":"U-component_of_WINDS"},"data":[0,0,0,0,0,0,0,0,0,0,0,0,0,0,0,0,0,0,0,0,0,0,0,0,0,0,0,0,0,0,0,0,0,0,0,0,0,0,0,0,0,0,0,0,0,0,0,0,0,0,0,0,0,0,0,0,0,0,2.2817,2.2819,0,2.2987,2.2989,2.2991,2.3021,2.302,2.3018,2.3017,2.3196,2.3202,2.3208,0,0,0,0,0,0,0,0,0,0,0,0,0,2.2523,2.2528,2.2817,2.2819,2.2822,2.2987,2.2989,2.2992,2.3021,2.302,2.3018,2.3016,2.3194,2.3201,2.3208,0,0,0,0,0,0,0,0,0,0,0,0,0,2.2668,2.253,2.2817,2.2856,2.2861,2.2987,2.2989,2.2992,2.3022,2.302,2.3017,2.3015,2.3191,2.32,2.3209,2.3309,0,0,2.3237,2.3241,0,0,0,0,0,0,0,0,2.266,2.2679,2.2848,2.2854,2.286,2.2981,2.2951,2.3099,2.3022,2.2961,2.3017,2.3014,2.3126,2.3141,2.3177,2.3317,2.3325,2.3238,2.3244,2.3248,2.325,0,0,0,0,0,0,0,2.265,2.2672,2.2885,2.2851,2.2858,2.2867,2.2885,2.2979,2.3054,2.2966,2.2969,2.2988,2.3129,2.3169,2.3182,2.3327,2.3238,2.3246,2.3252,2.3255,2.3557,2.356,0,0,0,0,0,0,2.2632,2.2663,2.2879,2.289,2.2752,2.2874,2.2894,2.2944,2.3053,2.3067,2.299,2.2989,2.3154,2.3171,2.3188,2.3312,2.3247,2.3256,2.3261,2.3555,2.3558,2.3561,0,0,0,0,0,0,2.2625,2.2651,2.2872,2.2777,2.2806,2.2881,2.2937,2.2949,2.2988,2.3071,2.3085,2.3016,2.3153,2.3175,2.3278,2.3318,2.326,2.3268,2.3552,2.3556,2.3559,2.3559,0,0,0,0,0,0,2.2617,2.2648,2.2686,2.2778,2.2811,2.2958,2.294,2.2954,2.3003,2.3004,2.3099,2.3113,2.3153,2.3264,2.3287,2.333,2.3276,2.3549,2.3554,2.3558,2.3556,2.3562,2.3568,0,0,0,0,0,2.2606,2.268,2.2687,2.2713,2.2859,2.296,2.298,2.3023,2.3006,2.3045,2.3098,2.311,2.331,2.3275,2.3301,2.3346,2.3546,2.3552,2.3558,2.3553,2.3561,2.3567,0,0,0,0,0,0,2.2592,2.2693,2.2702,2.2807,2.2875,2.2965,2.3015,2.303,2.3105,2.3102,2.3155,2.3176,2.3276,2.3322,2.328,2.3448,2.3427,2.3438,2.3415,2.3423,2.3429,2.3415,2.3283,0,0,0,0,0,2.2601,2.2673,2.2758,2.2843,2.2876,2.294,2.2986,2.3013,2.3086,2.3115,2.3176,2.3247,2.3326,2.3377,2.3455,2.3562,2.3584,2.3607,2.3613,2.3617,2.3627,2.3687,2.3698,2.358,2.3579,2.3579,0,0,2.2621,2.2685,2.2727,2.2842,2.2897,2.2972,2.2964,2.3044,2.31,2.3128,2.3228,2.3275,2.3358,2.3464,2.3513,2.3505,2.3664,2.3625,2.3628,2.3635,2.3694,2.3705,2.3715,2.3583,2.3583,2.3582,0,0,2.2695,2.275,2.2826,2.2882,2.2966,2.3008,2.3026,2.3114,2.3146,2.3247,2.3269,2.3338,2.3473,2.3531,2.3579,2.3675,2.3688,2.3699,2.373,2.3789,2.3798,2.3807,2.3841,2.3852,2.3707,2.3708,2.3708,0,2.2709,2.2821,2.2864,2.2943,2.2993,2.302,2.3098,2.3151,2.3256,2.329,2.3279,2.3449,2.3507,2.3627,2.365,2.3688,2.3711,2.3688,2.3793,2.3802,2.3811,2.3844,2.3856,2.3708,2.3708,2.3708,2.3708,0,2.2834,2.2912,2.2964,2.3063,2.3119,2.3197,2.3254,2.3306,2.3328,2.3372,2.3475,2.3545,2.3637,2.3668,2.3692,2.3791,2.3783,2.3782,2.3762,2.3822,2.3854,2.3867,2.3709,2.3709,2.3709,2.3709,0,0,2.2904,2.3025,2.3044,2.3089,2.3183,2.3245,2.3325,2.3413,2.3457,2.3529,2.3598,2.3711,2.371,2.3764,2.3795,2.3846,2.3917,2.3839,2.3841,2.385,2.4031,2.4031,2.4045,2.3927,2.3929,2.3932,2.4024,0,2.2988,2.313,2.3171,2.3291,2.3364,2.339,2.346,2.3527,2.357,2.3639,2.3687,2.3766,2.3759,2.3792,2.3844,2.3897,2.3954,2.3891,2.3992,2.3995,2.397,2.4062,2.4063,2.4146,2.4037,2.4039,2.4041,0,2.3106,2.3178,2.3304,2.3389,2.3421,2.3483,2.3567,2.3633,2.3709,2.3737,2.3796,2.3822,2.3908,2.3883,2.4003,2.3959,2.4003,2.4036,2.404,2.4051,2.4021,2.4075,2.4174,2.4187,2.4061,2.4059,2.4058,0,2.3143,2.3272,2.3365,2.3403,2.3504,2.3547,2.3591,2.3665,2.3716,2.379,2.3823,2.3907,2.3953,2.4018,2.4067,2.4044,2.4182,2.4162,2.4209,2.4207,2.4236,2.4234,2.4343,2.4265,2.4265,2.4265,2.4264,0,2.3233,2.3309,2.3383,2.3439,2.3526,2.3574,2.3658,2.3705,2.377,2.3837,2.3866,2.3929,2.399,2.4061,2.41,2.4193,2.4214,2.4239,2.4248,2.4236,2.4233,2.4266,2.4261,2.4268,2.4267,2.4267,2.4266,0,2.3289,2.3341,2.3444,2.3531,2.3555,2.3614,2.369,2.3747,2.3791,2.3875,2.3898,2.3968,2.4053,2.4108,2.4217,2.4243,2.4345,2.4353,2.4318,2.4323,2.4367,2.4362,2.4501,2.4522,2.4429,2.443,2.4431,0,2.3343,2.3402,2.3495,2.3541,2.3586,2.366,2.3711,2.3761,2.3813,2.3904,2.395,2.4037,2.4109,2.4244,2.4306,2.4389,2.44,2.4443,2.4412,2.4398,2.44,2.4396,2.4402,2.4447,2.4448,2.4449,2.4449,0,2.3432,2.3455,2.3527,2.3608,2.3668,2.3735,2.3802,2.3838,2.39,2.3957,2.4044,2.41,2.421,2.4296,2.4386,2.4433,2.4452,2.4458,2.4474,2.4462,2.4439,2.4452,2.4331,2.4455,2.4454,2.4454,2.4454,2.4453,2.3489,2.3543,2.3616,2.3696,2.3751,2.3812,2.387,2.392,2.3993,2.4086,2.4111,2.4202,2.4277,2.4399,2.4448,2.452,2.4515,2.4538,2.4543,2.4548,2.4548,2.4427,2.4537,2.4537,2.4537,2.4537,2.4537,0,2.358,2.3628,2.3701,2.3792,2.3855,2.3866,2.394,2.3992,2.4071,2.4139,2.4209,2.4308,2.4392,2.446,2.4546,2.4591,2.4602,2.4612,2.4609,2.462,2.4548,2.4526,2.4602,2.4602,2.4602,2.4602,2.4602,2.4602,2.3634,2.3725,2.3757,2.3876,2.3925,2.4012,2.4054,2.4112,2.4166,2.4275,2.4344,2.4387,2.4456,2.4547,2.4625,2.4643,2.4673,2.4682,2.4701,2.4633,2.4625,2.4618,2.4598,2.4688,2.4688,2.4768,2.4768,2.4769]},{"header":{"parameterUnit":"m.s-1","parameterCategory":1,"la1":30.2991,"la2":30.254,"lo1":-89.0895,"lo2":-89.0444,"dy":0.0017,"dx":0.0017,"nx":28,"ny":28,"refTime":"2025-07-07T21:00:00:Z","depth":0,"parameterNumber":3,"parameterNumberName":"V-component_of_WINDS"},"data":[0,0,0,0,0,0,0,0,0,0,0,0,0,0,0,0,0,0,0,0,0,0,0,0,0,0,0,0,0,0,0,0,0,0,0,0,0,0,0,0,0,0,0,0,0,0,0,0,0,0,0,0,0,0,0,0,0,0,5.0849,5.085,0,5.0958,5.0959,5.096,5.0941,5.0939,5.0937,5.0936,5.1037,5.1041,5.1046,0,0,0,0,0,0,0,0,0,0,0,0,0,5.0613,5.0617,5.0849,5.085,5.0851,5.0958,5.0959,5.0961,5.0941,5.0939,5.0937,5.0935,5.1036,5.1041,5.1046,0,0,0,0,0,0,0,0,0,0,0,0,0,5.0718,5.0619,5.0848,5.0855,5.0857,5.0957,5.0959,5.0961,5.0942,5.0939,5.0936,5.0934,5.1034,5.104,5.1047,5.1145,0,0,5.1068,5.107,0,0,0,0,0,0,0,0,5.0712,5.0726,5.0852,5.0855,5.0857,5.0933,5.0913,5.1022,5.0943,5.0909,5.0935,5.0932,5.1004,5.1013,5.104,5.115,5.1154,5.1068,5.1072,5.1075,5.1077,0,0,0,0,0,0,0,5.0704,5.0721,5.0891,5.0854,5.0857,5.0849,5.0861,5.0934,5.0971,5.0912,5.0911,5.0925,5.1005,5.1033,5.1042,5.1156,5.1068,5.1074,5.1078,5.1081,5.1351,5.1354,0,0,0,0,0,0,5.0697,5.0716,5.0888,5.0895,5.0776,5.0855,5.0869,5.0911,5.097,5.0977,5.0927,5.0923,5.1023,5.1034,5.1045,5.1164,5.1075,5.1081,5.1085,5.1348,5.1352,5.1355,0,0,0,0,0,0,5.0692,5.0712,5.0884,5.0805,5.0826,5.0863,5.0911,5.0915,5.0944,5.0982,5.0987,5.095,5.1021,5.1036,5.1121,5.1167,5.1084,5.109,5.1344,5.1349,5.1353,5.1401,0,0,0,0,0,0,5.0685,5.0711,5.0751,5.0806,5.0831,5.0961,5.0914,5.0919,5.0956,5.0953,5.1005,5.101,5.102,5.1111,5.1128,5.1175,5.1096,5.134,5.1346,5.1352,5.1396,5.1407,5.1417,0,0,0,0,0,5.0677,5.0758,5.0753,5.0774,5.0882,5.0964,5.0977,5.099,5.096,5.0999,5.1023,5.1009,5.1159,5.112,5.1138,5.1188,5.1337,5.1344,5.1351,5.1391,5.1405,5.1417,0,0,0,0,0,0,5.0703,5.0765,5.076,5.0863,5.0909,5.096,5.101,5.1004,5.1056,5.105,5.106,5.1072,5.1159,5.1182,5.1137,5.1286,5.1244,5.1255,5.1268,5.1281,5.1291,5.1283,5.1101,0,0,0,0,0,5.0721,5.0786,5.0835,5.092,5.0944,5.0973,5.1009,5.1015,5.1061,5.1079,5.111,5.1153,5.1209,5.1246,5.1301,5.1399,5.1409,5.1442,5.1453,5.1461,5.147,5.1523,5.1538,5.1378,5.1378,5.1378,0,0,5.0758,5.08,5.084,5.0927,5.0963,5.1026,5.0989,5.1058,5.1104,5.1089,5.1172,5.1196,5.1244,5.1336,5.1378,5.1358,5.1517,5.147,5.1477,5.1481,5.1532,5.1547,5.156,5.1383,5.1382,5.1382,0,0,5.0859,5.0898,5.0973,5.1011,5.1068,5.1087,5.1105,5.1158,5.1174,5.1259,5.1249,5.1302,5.14,5.1435,5.1465,5.1579,5.1566,5.1596,5.165,5.1702,5.1714,5.1725,5.1765,5.1779,5.1605,5.1605,5.1605,0,5.0897,5.0996,5.1011,5.1082,5.112,5.1113,5.1187,5.1221,5.1291,5.1316,5.1293,5.1417,5.1448,5.1548,5.1576,5.1601,5.162,5.159,5.1712,5.1723,5.1733,5.1771,5.1786,5.1608,5.1608,5.1608,5.1607,0,5.1039,5.1107,5.1161,5.1233,5.1276,5.1348,5.1372,5.1413,5.1415,5.1435,5.152,5.1559,5.1621,5.1645,5.1646,5.1744,5.173,5.171,5.1667,5.1752,5.1787,5.1802,5.1613,5.1612,5.1611,5.161,0,0,5.1158,5.1239,5.1258,5.1291,5.1353,5.1404,5.1475,5.1539,5.1573,5.1621,5.1679,5.1763,5.1745,5.1779,5.1784,5.1829,5.1916,5.1803,5.1804,5.1822,5.2025,5.204,5.2056,5.1908,5.1911,5.1914,5.2021,0,5.1263,5.1392,5.1409,5.1521,5.1584,5.1578,5.1639,5.1681,5.1702,5.1755,5.1776,5.1836,5.1808,5.1828,5.1873,5.1896,5.1956,5.1888,5.1959,5.1962,5.1947,5.2075,5.2091,5.219,5.2035,5.2037,5.2039,0,5.1404,5.146,5.158,5.1634,5.1661,5.1716,5.1776,5.1828,5.1875,5.1886,5.1926,5.1925,5.1995,5.1951,5.2045,5.1999,5.2028,5.2044,5.2048,5.2054,5.2005,5.2084,5.2222,5.2237,5.2061,5.2059,5.2058,0,5.1477,5.1583,5.1668,5.1696,5.1762,5.18,5.1828,5.1874,5.1911,5.1962,5.1986,5.2043,5.2074,5.2117,5.213,5.2097,5.2224,5.2181,5.2233,5.2233,5.2259,5.2257,5.2404,5.228,5.228,5.2279,5.2279,0,5.1593,5.1666,5.1703,5.1755,5.1836,5.1853,5.1932,5.1958,5.1998,5.2053,5.205,5.21,5.2116,5.2169,5.218,5.2255,5.2269,5.2279,5.228,5.2279,5.2278,5.2298,5.2291,5.2283,5.2282,5.2282,5.2281,0,5.1689,5.1717,5.1809,5.1865,5.188,5.1937,5.1983,5.2032,5.2052,5.2122,5.2138,5.217,5.2231,5.225,5.2323,5.233,5.2419,5.2415,5.2404,5.2404,5.2455,5.245,5.2619,5.2641,5.2503,5.2505,5.2506,0,5.1761,5.1818,5.188,5.1919,5.195,5.2011,5.205,5.2068,5.2108,5.2167,5.2208,5.2271,5.2321,5.242,5.2446,5.2502,5.2499,5.2554,5.2507,5.2503,5.2498,5.2495,5.25,5.2563,5.2564,5.2565,5.2566,0,5.1885,5.1896,5.1955,5.2019,5.2067,5.2116,5.2164,5.2195,5.2219,5.2264,5.2329,5.2369,5.2445,5.2506,5.2563,5.2588,5.258,5.2581,5.2596,5.2594,5.2586,5.259,5.2428,5.2577,5.2576,5.2575,5.2574,5.2574,5.197,5.2021,5.2073,5.2138,5.2177,5.2222,5.2271,5.2299,5.2355,5.2422,5.2428,5.2498,5.2542,5.2618,5.2647,5.2699,5.2683,5.2704,5.271,5.2715,5.2719,5.2579,5.2709,5.2709,5.2709,5.2709,5.2708,0,5.2094,5.2128,5.2188,5.2257,5.2308,5.23,5.2353,5.2394,5.2458,5.2502,5.2553,5.2627,5.2686,5.2718,5.2776,5.2812,5.281,5.2827,5.2824,5.2829,5.273,5.2712,5.2827,5.2827,5.2827,5.2827,5.2827,5.2827,5.2164,5.2249,5.2266,5.2369,5.2401,5.2473,5.2504,5.2544,5.258,5.2664,5.2715,5.2737,5.2775,5.2836,5.2889,5.2897,5.2918,5.2936,5.2942,5.2848,5.2836,5.2825,5.2807,5.2941,5.2941,5.3036,5.3037,5.3038]}]]